Regional Weather Roundup
Issued by NWS

Home | Current Version | Previous Version | Graphics & Text | Print | Product List | Glossary Off
Versions: 1 2 3 4 5 6 7 8 9 10 11 12 13 14 15 16 17 18 19 20 21 22 23 24 25 26 27 28 29 30 31 32 33 34 35 36 37 38 39 40 41 42 43 44 45 46 47 48 49 50

000
ASUS43 KTOP 210059
RWRKS

WEATHER ROUNDUP FOR KANSAS
NATIONAL WEATHER SERVICE GOODLAND KS
700 PM CST SAT JAN 20 2018

NOTE:  "FAIR" INDICATES FEW OR NO CLOUDS BELOW 12,000 FEET WITH NO
SIGNIFICANT WEATHER AND/OR OBSTRUCTIONS TO VISIBILITY.

KSZ001>006-013>018-027>032-041>047-210200-
NORTHWEST KANSAS

CITY           SKY/WX    TMP DP  RH WIND       PRES   REMARKS
GOODLAND       CLOUDY    35  26  69 NE8       29.75S
HAYS           CLOUDY    38  19  46 MISG      29.77R
HILL CITY      CLOUDY    34  24  67 N6        29.79R
RUSSELL        CLOUDY    45  35  68 E7        29.74R
$$

KSZ061>065-074>080-084>089-210200-
SOUTHWEST KANSAS

CITY           SKY/WX    TMP DP  RH WIND       PRES   REMARKS
DODGE CITY     CLOUDY    47  22  37 E7        29.72S
GARDEN CITY    CLOUDY    46  23  40 E15       29.70F
GREAT BEND     CLEAR     46  35  65 SE8       29.75R
LIBERAL        CLOUDY    52  21  29 E13       29.68S
$$

KSZ066>073-081>083-090>101-210200-
SOUTHEAST KANSAS

CITY           SKY/WX    TMP DP  RH WIND       PRES   REMARKS
CHANUTE        CLEAR     53  45  74 SE9       29.81F
COFFEYVILLE    CLEAR     57  48  72 S13       29.83R
HUTCHINSON     CLEAR     49  41  74 SE5       29.75R
MEDICINE LODGE   N/A     73  39  29 SE9       29.73S
NEWTON         CLEAR     50  40  68 S8        29.78R
PARSONS        CLEAR     56  48  74 SE8       29.83R
WICHITA INTL   PTCLDY    49  40  71 S6        29.76R
WICHITA JABRA  CLEAR     50  42  74 S6        29.77R
WICHITA MCCONL CLEAR     50  40  67 S7        29.76S
WINFIELD       CLEAR     55  42  61 SE6       29.79R
$$

KSZ007>012-019>026-033>040-048>060-102>105-210200-
NORTHEAST KANSAS

CITY           SKY/WX    TMP DP  RH WIND       PRES   REMARKS
CONCORDIA      CLEAR     42  40  92 E5        29.79R
EMPORIA        CLEAR     44  39  82 E6        29.79R
LAWRENCE       CLEAR     47  44  90 E9        29.83F
MANHATTAN      CLEAR     45  40  82 NE3       29.80R
OLATHE IND     CLEAR     45  43  93 E8        29.85S
OLATHE EXE     CLEAR     46  44  93 E6        29.85S
SALINA         CLEAR     46  40  79 SE6       29.78R
TOPEKA BILLARD CLEAR     40  40 100 E6        29.82F
TOPEKA FORBES  CLEAR     45  43  93 E7        29.81F
$$




USA.gov is the U.S. government's official web portal to all federal, state and local government web resources and services.